Previsão horária em Çerkezköy

Hoje, 3 Agosto, Terça-feira

Tempo Temperatura Precipitação Vento Pressão Humidade
00:00 +28°C° 0 mm 2 m/s 744 mmHg 33%
01:00 +28°C° 0 mm 2 m/s 744 mmHg 36%
02:00 +27°C° 0 mm 2 m/s 744 mmHg 39%
03:00 +27°C° 0 mm 1 m/s 744 mmHg 39%
04:00 +27°C° 0 mm 1 m/s 744 mmHg 40%
05:00 +27°C° 0 mm 1 m/s 744 mmHg 40%
06:00 +29°C° 0 mm 1 m/s 744 mmHg 36%
07:00 +31°C° 0 mm 1 m/s 744 mmHg 31%
08:00 +33°C° 0 mm 1 m/s 744 mmHg 27%
09:00 +36°C° 0 mm 2 m/s 745 mmHg 26%
10:00 +37°C° 0 mm 3 m/s 745 mmHg 25%
11:00 +40°C° 0 mm 4 m/s 745 mmHg 24%
12:00 +40°C° 0 mm 5 m/s 745 mmHg 27%
13:00 +39°C° 0 mm 6 m/s 745 mmHg 29%
14:00 +39°C° 0 mm 7 m/s 745 mmHg 31%
15:00 +38°C° 0 mm 7 m/s 745 mmHg 36%
16:00 +36°C° 0 mm 7 m/s 745 mmHg 41%
17:00 +35°C° 0 mm 7 m/s 745 mmHg 45%
18:00 +33°C° 0 mm 6 m/s 745 mmHg 59%
19:00 +29°C° 0 mm 6 m/s 745 mmHg 73%
20:00 +27°C° 0 mm 5 m/s 745 mmHg 86%
21:00 +27°C° 0 mm 5 m/s 746 mmHg 87%
22:00 +26°C° 0 mm 4 m/s 746 mmHg 88%
23:00 +26°C° 0 mm 4 m/s 746 mmHg 89%

Amanhã, 4 Agosto, Quarta-feira

Tempo Temperatura Precipitação Vento Pressão Humidade
00:00 +26°C° 0 mm 3 m/s 746 mmHg 88%
01:00 +25°C° 0 mm 3 m/s 746 mmHg 87%
02:00 +25°C° 0 mm 3 m/s 746 mmHg 87%
03:00 +25°C° 0 mm 3 m/s 746 mmHg 87%
04:00 +25°C° 0 mm 3 m/s 746 mmHg 86%
05:00 +24°C° 0 mm 3 m/s 746 mmHg 86%
06:00 +26°C° 0 mm 4 m/s 746 mmHg 75%
07:00 +29°C° 0 mm 4 m/s 746 mmHg 64%
08:00 +32°C° 0 mm 5 m/s 747 mmHg 53%
09:00 +33°C° 0 mm 5 m/s 747 mmHg 47%
10:00 +35°C° 0 mm 5 m/s 747 mmHg 42%
11:00 +36°C° 0 mm 5 m/s 747 mmHg 36%
12:00 +36°C° 0 mm 6 m/s 747 mmHg 36%
13:00 +36°C° 0 mm 6 m/s 747 mmHg 37%
14:00 +36°C° 0 mm 6 m/s 746 mmHg 37%
15:00 +35°C° 0 mm 6 m/s 746 mmHg 40%
16:00 +34°C° 0 mm 6 m/s 746 mmHg 43%
17:00 +33°C° 0 mm 6 m/s 746 mmHg 46%
18:00 +30°C° 0 mm 6 m/s 746 mmHg 59%
19:00 +28°C° 0 mm 6 m/s 746 mmHg 72%
20:00 +26°C° 0 mm 5 m/s 746 mmHg 84%
21:00 +26°C° 0 mm 5 m/s 746 mmHg 86%
22:00 +26°C° 0 mm 4 m/s 746 mmHg 88%
23:00 +25°C° 0 mm 3 m/s 746 mmHg 90%

Depois de amanhã, 5 Agosto, Quinta-feira

Tempo Temperatura Precipitação Vento Pressão Humidade
00:00 +25°C° 0 mm 3 m/s 746 mmHg 91%
01:00 +25°C° 0 mm 3 m/s 746 mmHg 92%
02:00 +24°C° 0 mm 3 m/s 746 mmHg 92%
03:00 +24°C° 0 mm 3 m/s 746 mmHg 93%
04:00 +24°C° 0 mm 3 m/s 746 mmHg 93%
05:00 +24°C° 0 mm 3 m/s 745 mmHg 93%
06:00 +27°C° 0 mm 4 m/s 745 mmHg 80%
07:00 +29°C° 0 mm 4 m/s 745 mmHg 66%
08:00 +32°C° 0 mm 4 m/s 745 mmHg 53%
09:00 +34°C° 0 mm 4 m/s 745 mmHg 44%
10:00 +36°C° 0 mm 4 m/s 745 mmHg 36%
11:00 +39°C° 0 mm 3 m/s 745 mmHg 27%
12:00 +40°C° 0 mm 4 m/s 744 mmHg 27%
13:00 +40°C° 0 mm 4 m/s 744 mmHg 27%
14:00 +41°C° 0 mm 4 m/s 743 mmHg 26%
15:00 +40°C° 0 mm 4 m/s 743 mmHg 27%
16:00 +40°C° 0 mm 4 m/s 742 mmHg 27%
17:00 +38°C° 0 mm 4 m/s 742 mmHg 28%
18:00 +35°C° 0 mm 4 m/s 742 mmHg 36%
19:00 +31°C° 0 mm 3 m/s 742 mmHg 45%
20:00 +28°C° 0 mm 3 m/s 741 mmHg 53%
21:00 +28°C° 0 mm 3 m/s 741 mmHg 52%
22:00 +28°C° 0 mm 3 m/s 741 mmHg 50%
23:00 +27°C° 0 mm 3 m/s 741 mmHg 49%

6 Agosto, Sexta-feira

Tempo Temperatura Precipitação Vento Pressão Humidade
00:00 +27°C° 0 mm 3 m/s 740 mmHg 49%
01:00 +26°C° 0 mm 3 m/s 740 mmHg 49%
02:00 +26°C° 0 mm 2 m/s 740 mmHg 49%
03:00 +26°C° 0 mm 2 m/s 739 mmHg 45%
04:00 +26°C° 0 mm 2 m/s 739 mmHg 42%
05:00 +26°C° 0 mm 3 m/s 739 mmHg 38%
06:00 +29°C° 0 mm 3 m/s 739 mmHg 35%
07:00 +31°C° 0 mm 3 m/s 738 mmHg 32%
08:00 +34°C° 0 mm 3 m/s 738 mmHg 29%
09:00 +36°C° 0 mm 3 m/s 738 mmHg 25%
10:00 +38°C° 0 mm 3 m/s 738 mmHg 22%
11:00 +39°C° 0 mm 3 m/s 738 mmHg 18%
12:00 +40°C° 0 mm 3 m/s 738 mmHg 19%
13:00 +40°C° 0 mm 3 m/s 737 mmHg 19%
14:00 +40°C° 0 mm 3 m/s 737 mmHg 20%
15:00 +37°C° 0 mm 4 m/s 737 mmHg 31%
16:00 +35°C° 0 mm 6 m/s 737 mmHg 42%
17:00 +32°C° 0 mm 7 m/s 736 mmHg 54%
18:00 +30°C° 0 mm 6 m/s 737 mmHg 61%
19:00 +29°C° 0 mm 5 m/s 737 mmHg 68%
20:00 +28°C° 0 mm 4 m/s 737 mmHg 76%
21:00 +28°C° 0 mm 5 m/s 737 mmHg 76%
22:00 +27°C° 0 mm 7 m/s 737 mmHg 77%
23:00 +27°C° 0 mm 8 m/s 738 mmHg 77%

7 Agosto, Sábado

Tempo Temperatura Precipitação Vento Pressão Humidade
00:00 +27°C° 0 mm 7 m/s 738 mmHg 74%
01:00 +26°C° 0 mm 7 m/s 738 mmHg 71%
02:00 +26°C° 0 mm 7 m/s 738 mmHg 68%
03:00 +24°C° 0 mm 7 m/s 739 mmHg 69%
04:00 +24°C° 0 mm 6 m/s 739 mmHg 69%
05:00 +23°C° 0 mm 6 m/s 740 mmHg 70%
06:00 +24°C° 0 mm 6 m/s 741 mmHg 65%
07:00 +26°C° 0 mm 6 m/s 741 mmHg 59%
08:00 +27°C° 0 mm 6 m/s 742 mmHg 54%
09:00 +29°C° 0 mm 6 m/s 742 mmHg 49%
10:00 +30°C° 0 mm 5 m/s 742 mmHg 43%
11:00 +33°C° 0 mm 5 m/s 742 mmHg 38%
12:00 +33°C° 0 mm 5 m/s 742 mmHg 38%
13:00 +33°C° 0 mm 5 m/s 743 mmHg 37%
14:00 +34°C° 0 mm 6 m/s 743 mmHg 36%
15:00 +33°C° 0 mm 6 m/s 743 mmHg 40%
16:00 +32°C° 0 mm 6 m/s 743 mmHg 43%
17:00 +30°C° 0 mm 6 m/s 743 mmHg 46%
18:00 +28°C° 0 mm 6 m/s 744 mmHg 55%
19:00 +27°C° 0 mm 5 m/s 744 mmHg 64%
20:00 +25°C° 0 mm 4 m/s 745 mmHg 73%
21:00 +23°C° 0 mm 4 m/s 745 mmHg 77%
22:00 +24°C° 0 mm 3 m/s 746 mmHg 81%
23:00 +22°C° 0 mm 3 m/s 746 mmHg 84%

8 Agosto, Domingo

Tempo Temperatura Precipitação Vento Pressão Humidade
00:00 +23°C° 0 mm 2 m/s 746 mmHg 86%
01:00 +23°C° 0 mm 1 m/s 746 mmHg 87%
02:00 +22°C° 0 mm 1 m/s 746 mmHg 88%
03:00 +22°C° 0 mm 1 m/s 747 mmHg 88%
04:00 +22°C° 0 mm 1 m/s 747 mmHg 88%
05:00 +21°C° 0 mm 2 m/s 747 mmHg 88%
06:00 +24°C° 0 mm 2 m/s 748 mmHg 77%
07:00 +26°C° 0 mm 3 m/s 748 mmHg 67%
08:00 +28°C° 0 mm 4 m/s 749 mmHg 57%
09:00 +29°C° 0 mm 4 m/s 749 mmHg 51%
10:00 +32°C° 0 mm 4 m/s 749 mmHg 44%
11:00 +33°C° 0 mm 4 m/s 749 mmHg 38%
12:00 +34°C° 0 mm 4 m/s 749 mmHg 35%
13:00 +34°C° 0 mm 5 m/s 749 mmHg 33%
14:00 +35°C° 0 mm 5 m/s 749 mmHg 31%
15:00 +34°C° 0 mm 5 m/s 749 mmHg 34%
16:00 +33°C° 0 mm 6 m/s 749 mmHg 36%
17:00 +32°C° 0 mm 6 m/s 749 mmHg 39%
18:00 +29°C° 0 mm 6 m/s 749 mmHg 49%
19:00 +27°C° 0 mm 5 m/s 749 mmHg 59%
20:00 +25°C° 0 mm 4 m/s 749 mmHg 69%
21:00 +23°C° 0 mm 4 m/s 749 mmHg 72%
22:00 +24°C° 0 mm 3 m/s 749 mmHg 75%
23:00 +22°C° 0 mm 3 m/s 750 mmHg 78%
Mostrar mais

Necessitamos do seu Consentimento

A Meteoprog e os seus Fornecedores de Serviços podem armazenar e aceder a dados pessoais como cookies, identificadores do dispositivo ou outras tecnologias semelhantes existentes no seu dispositivo e processar estes dados para personalizar conteúdos e anúncios, assim como funcionalidades nas redes sociais e análise de tráfego.

  • Armazenar e/ou aceder a informações no seu dispositivo

    Os cookies, identificadores do dispositivo ou outras informações podem ser armazenados ou acedidos no seu dispositivo, para os fins acima indicados.

  • Anúncios e conteúdos personalizados, medição de anúncios e conteúdos, dados sobre o público-alvo e desenvolvimento de produtos

    Os anúncios e os conteúdos podem ser personalizados com base num perfil. Podem ser adicionados dados adicionais para uma maior personalização dos anúncios e dos conteúdos. A eficácia dos anúncios e dos conteúdos pode ser medida. Podem ser obtidas informações sobre o público que visualizou os anúncios e os conteúdos. Estes dados podem ser usados para desenvolver ou melhorar sistemas, softwares ou a experiência do utilizador.

Ao clicar em "Eu concordo”, permitirá o uso de cookies, identificadores do dispositivo e web beacons mencionados ou outras tecnologias semelhantes. As configurações do navegador do seu dispositivo podem ser alteradas.

Para certos fins, podem ser invocados interesses legítimos ao invés de consentimento. Pode ler mais informação sobre este assunto na nossa Política de Privacidade e Cookies.